Regional Weather Roundup
Issued by NWS

Home | Current Version | Previous Version | Text Only | Print | Product List | Glossary On
Versions: 1 2 3 4 5 6 7 8 9 10 11 12 13 14 15 16 17 18 19 20 21 22 23 24 25 26 27 28 29 30 31 32 33 34 35 36 37 38 39 40 41 42 43 44 45 46 47 48 49 50
000
ASUS45 KREV 310310
RWRNV
NEVADA REGIONAL WEATHER ROUNDUP
NATIONAL WEATHER SERVICE RENO NV
800 PM PDT WED JUL 30 2014

NOTE: "FAIR" INDICATES FEW OR NO CLOUDS BELOW 12,000 FEET WITH NO
SIGNIFICANT WEATHER AND/OR OBSTRUCTIONS TO VISIBILITY.

NVZ001-003-004-310400-
WESTERN NEVADA

CITY           SKY/WX    TMP DP  RH WIND       PRES   REMARKS
RENO           CLOUDY    79  46  31 W10       30.20S
CARSON CITY    FAIR      75  46  35 CALM      30.23S
SLIDE MTN        N/A     57  37  47 W6          N/A
PYRAMID LAKE     N/A     84 N/A N/A NW3         N/A
FALLON         CLOUDY    83  43  24 SW5       30.13S
LOVELOCK       CLOUDY    83  43  24 NW17      30.10S
HAWTHORNE      MOCLDY    79  52  38 N16       30.19R
$$

NVZ002-CAZ072-073-310400-
NORTHERN AND CENTRAL SIERRA

CITY           SKY/WX    TMP DP  RH WIND       PRES   REMARKS
S. LAKE TAHOE  MOCLDY    71  46  40 S3        30.34F
TRUCKEE        MOCLDY    64  54  68 N7        30.33S
SQUAW VLY 8000 NOT AVBL
BLUE CANYON    PTCLDY    76  43  30 S3        30.28R
MAMMOTH LAKES  FAIR      63  52  67 SE5       30.40S
BRIDGEPORT     FAIR      66  44  45 N5        30.35S
$$

NVZ030-031-036-310400-
NORTHERN NEVADA

CITY           SKY/WX    TMP DP  RH WIND       PRES   REMARKS
ELKO           MOCLDY    79  44  28 NE3       30.17S
WINNEMUCCA     MOCLDY    86  40  19 N5        30.13R
WENDOVER       CLEAR     81  52  36 E10       30.16S
$$

NVZ035-037-310400-
CENTRAL NEVADA

CITY           SKY/WX    TMP DP  RH WIND       PRES   REMARKS
ELY            PTCLDY    73  44  35 N5        30.25R
EUREKA           N/A     76  41  28 SW12      30.25
$$

NVZ013-014-310400-
SOUTH CENTRAL NEVADA

CITY           SKY/WX    TMP DP  RH WIND       PRES   REMARKS
TONOPAH        CLOUDY    70  57  63 E7        30.28S
$$

NVZ017-020-022-310400-
SOUTHERN NEVADA

CITY           SKY/WX    TMP DP  RH WIND       PRES   REMARKS
LAS VEGAS      CLOUDY    99  47  17 W13G20    29.87R
N. LAS VEGAS   CLOUDY    97  46  17 N22G29    29.89R
NELLIS AFB     MOCLDY    98  51  20 NW21G32   29.87R
HENDERSON      MOCLDY    98  49  19 NW16G26   29.94R
MERCURY        CLOUDY    89  46  22 N15       30.03R
$$


USA.gov is the U.S. government's official web portal to all federal, state and local government web resources and services.